TimeMDT,TemperatureF,Dew PointF,Humidity,Sea Level PressureIn,VisibilityMPH,Wind Direction,Wind SpeedMPH,Gust SpeedMPH,PrecipitationIn,Events,Conditions,WindDirDegrees,DateUTC
12:15 AM,47.5,42.3,82,30.32,10.0,NE,5.8,-,N/A,,Unknown,50,2012-10-14 06:15:00
12:35 AM,48.6,42.3,79,30.32,10.0,ENE,5.8,-,N/A,,Unknown,70,2012-10-14 06:35:00
12:55 AM,48.9,42.8,79,30.32,10.0,ENE,6.9,-,N/A,,Unknown,60,2012-10-14 06:55:00
1:15 AM,48.2,43.7,84,30.32,10.0,East,5.8,-,N/A,Rain,Light Rain,80,2012-10-14 07:15:00
1:35 AM,47.3,43.9,88,30.33,10.0,East,4.6,-,N/A,,Unknown,80,2012-10-14 07:35:00
1:55 AM,47.3,43.2,86,30.34,10.0,NE,4.6,-,N/A,,Unknown,50,2012-10-14 07:55:00
2:15 AM,46.9,43.5,88,30.34,10.0,Calm,Calm,-,N/A,,Unknown,0,2012-10-14 08:15:00
2:35 AM,46.8,43.7,89,30.34,10.0,Calm,Calm,-,N/A,,Unknown,0,2012-10-14 08:35:00
2:55 AM,46.8,43.3,88,30.34,10.0,NNE,3.5,-,N/A,,Unknown,30,2012-10-14 08:55:00
3:15 AM,47.3,43.3,86,30.34,10.0,NE,3.5,-,N/A,,Unknown,40,2012-10-14 09:15:00
3:35 AM,47.3,43.3,86,30.33,10.0,NNE,4.6,-,N/A,,Unknown,20,2012-10-14 09:35:00
3:55 AM,47.3,43.2,86,30.34,10.0,Calm,Calm,-,N/A,,Unknown,0,2012-10-14 09:55:00
4:15 AM,46.2,43.3,90,30.32,10.0,Calm,Calm,-,N/A,,Unknown,0,2012-10-14 10:15:00
4:35 AM,45.7,43.3,92,30.34,10.0,East,3.5,-,N/A,,Unknown,90,2012-10-14 10:35:00
5:15 AM,43.7,41.9,93,30.35,10.0,NNE,3.5,-,N/A,,Unknown,30,2012-10-14 11:15:00
5:35 AM,43.9,42.1,93,30.35,10.0,Calm,Calm,-,N/A,,Unknown,0,2012-10-14 11:35:00
5:55 AM,43.0,41.0,93,30.35,10.0,East,3.5,-,N/A,,Unknown,80,2012-10-14 11:55:00
6:15 AM,42.8,40.5,91,30.37,10.0,Calm,Calm,-,N/A,,Unknown,0,2012-10-14 12:15:00
6:35 AM,43.9,41.5,91,30.38,10.0,Calm,Calm,-,N/A,,Unknown,0,2012-10-14 12:35:00
6:55 AM,43.3,40.6,90,30.38,10.0,Calm,Calm,-,N/A,,Unknown,0,2012-10-14 12:55:00
7:15 AM,42.3,40.6,94,30.39,10.0,Calm,Calm,-,N/A,,Unknown,0,2012-10-14 13:15:00
7:35 AM,41.9,40.3,94,30.39,10.0,NNW,3.5,-,N/A,,Unknown,340,2012-10-14 13:35:00
7:55 AM,43.0,41.5,95,30.41,10.0,NNW,3.5,-,N/A,,Unknown,340,2012-10-14 13:55:00
8:15 AM,45.3,42.4,90,30.41,10.0,NNE,3.5,-,N/A,,Unknown,20,2012-10-14 14:15:00
8:35 AM,47.7,42.4,82,30.42,10.0,NE,3.5,-,N/A,,Unknown,50,2012-10-14 14:35:00
8:55 AM,49.1,41.9,76,30.43,10.0,ENE,6.9,-,N/A,,Unknown,70,2012-10-14 14:55:00
9:15 AM,49.3,43.0,79,30.43,10.0,East,4.6,-,N/A,,Unknown,100,2012-10-14 15:15:00
9:35 AM,49.5,43.9,81,30.43,10.0,ESE,3.5,-,N/A,,Unknown,120,2012-10-14 15:35:00
9:55 AM,50.9,44.1,77,30.43,10.0,East,3.5,-,N/A,,Unknown,90,2012-10-14 15:55:00
10:15 AM,52.2,44.2,74,30.43,10.0,ESE,3.5,-,N/A,,Unknown,110,2012-10-14 16:15:00
10:35 AM,52.9,44.2,72,30.42,10.0,Calm,Calm,-,N/A,,Unknown,0,2012-10-14 16:35:00
10:55 AM,54.1,44.2,69,30.42,10.0,Calm,Calm,-,N/A,,Unknown,0,2012-10-14 16:55:00
11:15 AM,55.9,44.8,66,30.41,10.0,Calm,Calm,-,N/A,,Unknown,0,2012-10-14 17:15:00
11:35 AM,57.0,45.7,66,30.40,10.0,Calm,Calm,-,N/A,,Unknown,0,2012-10-14 17:35:00
11:55 AM,57.6,45.5,64,30.40,10.0,Calm,Calm,-,N/A,,Unknown,0,2012-10-14 17:55:00
12:15 PM,59.4,44.6,58,30.40,10.0,Calm,Calm,-,N/A,,Unknown,0,2012-10-14 18:15:00
12:35 PM,59.7,43.3,55,30.38,10.0,Calm,Calm,-,N/A,,Unknown,0,2012-10-14 18:35:00
12:55 PM,61.5,43.3,51,30.38,10.0,Calm,Calm,-,N/A,,Unknown,0,2012-10-14 18:55:00
1:15 PM,62.2,41.5,47,30.37,10.0,Calm,Calm,-,N/A,,Unknown,0,2012-10-14 19:15:00
1:35 PM,63.3,41.0,44,30.36,10.0,Calm,Calm,-,N/A,,Unknown,0,2012-10-14 19:35:00
1:55 PM,64.4,39.6,40,30.35,10.0,Calm,Calm,-,N/A,,Unknown,0,2012-10-14 19:55:00
2:15 PM,65.5,37.8,36,30.34,10.0,ESE,5.8,-,N/A,,Unknown,110,2012-10-14 20:15:00
2:35 PM,66.6,36.1,33,30.33,10.0,East,4.6,-,N/A,,Unknown,80,2012-10-14 20:35:00
2:55 PM,67.3,35.4,31,30.32,10.0,Calm,Calm,-,N/A,,Unknown,0,2012-10-14 20:55:00
3:15 PM,67.3,35.8,31,30.31,10.0,Calm,Calm,-,N/A,,Unknown,0,2012-10-14 21:15:00
3:35 PM,67.3,35.8,31,30.30,2.5,Calm,Calm,-,N/A,,Unknown,0,2012-10-14 21:35:00
3:55 PM,67.8,35.8,31,30.30,10.0,West,4.6,-,N/A,,Unknown,280,2012-10-14 21:55:00
4:15 PM,67.5,35.6,31,30.30,10.0,South,3.5,-,N/A,,Unknown,190,2012-10-14 22:15:00
4:35 PM,68.2,36.0,31,30.29,10.0,SSW,4.6,-,N/A,,Unknown,200,2012-10-14 22:35:00
4:55 PM,67.5,36.1,32,30.29,10.0,SSE,3.5,-,N/A,,Unknown,160,2012-10-14 22:55:00
5:15 PM,67.3,37.0,33,30.29,10.0,South,5.8,-,N/A,,Unknown,190,2012-10-14 23:15:00
5:35 PM,67.1,40.1,37,30.29,10.0,SSW,4.6,-,N/A,,Unknown,210,2012-10-14 23:35:00
5:55 PM,66.4,39.7,38,30.28,10.0,SW,5.8,-,N/A,,Unknown,220,2012-10-14 23:55:00
6:15 PM,65.7,37.9,36,30.28,10.0,West,6.9,-,N/A,,Unknown,260,2012-10-15 00:15:00
6:35 PM,64.0,38.7,39,30.28,10.0,WSW,6.9,-,N/A,,Unknown,250,2012-10-15 00:35:00
6:55 PM,62.6,38.8,42,30.28,10.0,SW,4.6,-,N/A,,Unknown,220,2012-10-15 00:55:00
7:15 PM,61.7,39.2,43,30.28,10.0,West,3.5,-,N/A,,Unknown,260,2012-10-15 01:15:00
7:35 PM,57.4,44.6,62,30.28,10.0,North,6.9,-,N/A,,Unknown,10,2012-10-15 01:35:00
7:55 PM,55.6,45.1,68,30.29,10.0,NE,4.6,-,N/A,,Unknown,40,2012-10-15 01:55:00
8:15 PM,56.7,44.2,63,30.29,10.0,Calm,Calm,-,N/A,,Unknown,0,2012-10-15 02:15:00
8:35 PM,55.6,44.8,67,30.30,10.0,Calm,Calm,-,N/A,,Unknown,0,2012-10-15 02:35:00
8:55 PM,52.7,44.6,74,30.30,10.0,NNE,4.6,-,N/A,,Unknown,20,2012-10-15 02:55:00
9:15 PM,52.3,44.1,73,30.30,10.0,NE,4.6,-,N/A,,Unknown,50,2012-10-15 03:15:00
9:35 PM,52.7,42.8,69,30.30,10.0,NE,5.8,-,N/A,,Unknown,50,2012-10-15 03:35:00
9:55 PM,51.1,42.1,71,30.31,7.0,NE,5.8,-,N/A,,Unknown,40,2012-10-15 03:55:00
10:15 PM,52.3,42.1,68,30.31,10.0,NE,8.1,-,N/A,,Unknown,50,2012-10-15 04:15:00
10:35 PM,51.1,42.3,72,30.32,10.0,ENE,8.1,-,N/A,,Unknown,70,2012-10-15 04:35:00
11:15 PM,49.5,41.2,73,30.32,10.0,East,6.9,-,N/A,,Unknown,80,2012-10-15 05:15:00
11:35 PM,48.7,41.0,75,30.32,10.0,ENE,4.6,-,N/A,,Unknown,70,2012-10-15 05:35:00
11:55 PM,47.5,40.8,78,30.31,10.0,NE,6.9,-,N/A,,Unknown,50,2012-10-15 05:55:00